Hourly Data Report for October 07, 2006

TORONTO CITY
ONTARIO

43°40'00.000" N
79°24'00.000" W
112.50 m
6158355
71508
XTO

Download Data

Hourly Data (October 2006)
Hourly Data Report for October 7, 2006
TIME
LST
Temp Definition
°C
Dew Point Definition
°C
Rel Hum Definition
%
Precip. Amount Definition
mm

Wind Dir Definition
10's deg

Wind Spd Definition
km/h
Visibility Definition
km
Stn Press Definition
kPa
Hmdx Definition


Wind Chill Definition


Weather Definition


00:00 9.3 6.5 83   LegendMM LegendMM   101.78     LegendNANA
01:00 8.5 6.3 86   LegendMM LegendMM   101.73     LegendNANA
02:00 8.1 6.2 88   LegendMM LegendMM   101.72     LegendNANA
03:00 8.0 6.5 90   LegendMM LegendMM   101.73     LegendNANA
04:00 8.1 5.9 86   LegendMM LegendMM   101.74     LegendNANA
05:00 7.4 5.6 88   LegendMM LegendMM   101.77     LegendNANA
06:00 7.0 5.5 90   LegendMM LegendMM   101.77     LegendNANA
07:00 7.0 5.9 93   LegendMM LegendMM   101.78     LegendNANA
08:00 9.8 7.4 85   LegendMM LegendMM   101.82     LegendNANA
09:00 12.1 9.3 83   LegendMM LegendMM   101.87     LegendNANA
10:00 13.5 9.1 75   LegendMM LegendMM   101.85     LegendNANA
11:00 14.3 6.7 60   LegendMM LegendMM   101.81     LegendNANA
12:00 15.6 4.7 48   LegendMM LegendMM   101.76     LegendNANA
13:00 15.9 3.1 42   LegendMM LegendMM   101.67     LegendNANA
14:00 15.7 2.3 40   LegendMM LegendMM   101.59     LegendNANA
15:00 15.1 3.2 45   LegendMM LegendMM   101.57     LegendNANA
16:00 14.4 4.6 52   LegendMM LegendMM   101.52     LegendNANA
17:00 13.7 5.6 58   LegendMM LegendMM   101.49     LegendNANA
18:00 12.1 6.9 70   LegendMM LegendMM   101.49     LegendNANA
19:00 11.9 7.8 76   LegendMM LegendMM   101.48     LegendNANA
20:00 11.9 8.2 78   LegendMM LegendMM   101.47     LegendNANA
21:00 11.0 7.9 81   LegendMM LegendMM   101.45     LegendNANA
22:00 10.7 8.1 84   LegendMM LegendMM   101.45     LegendNANA
23:00 10.4 8.2 86   LegendMM LegendMM   101.43     LegendNANA

Notes on Data Quality.

Legend

  • E = Estimated
  • M = Missing
  • NA = Not Available*
  • [empty] = Indicates an unobserved value
Date modified: